Charleston, WV

8:05 AM EDT on October 22, 2019 (GMT -0400)
Yeager Airport

Weather History for KCRW - September, 2019

Change the Weather History Date:

Monday, September 16, 2019

  Actual Average Record
Temperature  
Mean Temperature 75 °F 67 °F  
Max Temperature 93 °F 78 °F 98 °F (1928)
Min Temperature 57 °F 57 °F 41 °F (1902)
Degree Days  
Heating Degree Days 0 2  
Month to date heating degree days 0 10  
Since 1 July heating degree days 0 12  
Cooling Degree Days 10 4  
Month to date cooling degree days 179 88  
Year to date cooling degree days 1328 1034  
Growing Degree Days 25 (Base 50)    
Moisture  
Dew Point 58 °F    
Average Humidity 61    
Maximum Humidity 93    
Minimum Humidity 29    
Precipitation  
Precipitation 0.00 in 0.10 in 1.40 in (1996)
Month to date precipitation 0.09 1.77  
Year to date precipitation 33.15 32.88  
Snow  
Snow 0.00 in 0.00 in T in (1989)
Month to date snowfall 0.0 0.0  
Since 1 September snowfall 0.0 0.0  
Snow Depth 0.00 in    
Sea Level Pressure  
Sea Level Pressure 30.04 in    
Wind  
Wind Speed 1 mph (West)    
Max Wind Speed 10 mph    
Max Gust Speed -    
Visibility 10 miles    
Events      
T = Trace of Precipitation, MM = Missing Value Source: NWS Daily Summary

Daily Weather History Graph

Daily Weather History Graph

Search for Another Location

Airport or City:

Astronomy

Sep. 16, 2019 Rise Set
Actual Time 7:08 AM EDT 7:33 PM EDT
Civil Twilight 6:42 AM EDT 7:59 PM EDT
Nautical Twilight 6:10 AM EDT 8:30 PM EDT
Astronomical Twilight 5:39 AM EDT 9:02 PM EDT
Moon 9:08 PM EDT (9/16) 9:13 AM EDT (9/16)
Length of Visible Light 13h 17m
Length of Day
12h 24m
Waning Gibbous, 94% of the Moon is Illuminated
Sep 16
Waning Gibbous
Sep 21
Last Quarter
Sep 28
New
Oct 5
First Quarter
Oct 13
Full

Hourly Weather History & Observations

Time (EDT) Temp. Heat Index Dew Point Humidity Pressure Visibility Wind Dir Wind Speed Gust Speed Precip Events Conditions
12:54 AM 62.1 °F - 55.0 °F 78% 30.09 in 10.0 mi Calm Calm - N/A   Clear
1:54 AM 62.1 °F - 55.0 °F 78% 30.08 in 10.0 mi Calm Calm - N/A   Clear
2:54 AM 60.1 °F - 55.0 °F 83% 30.08 in 10.0 mi Calm Calm - N/A   Clear
3:54 AM 59.0 °F - 55.9 °F 90% 30.07 in 10.0 mi Calm Calm - N/A   Clear
4:54 AM 59.0 °F - 55.0 °F 87% 30.06 in 10.0 mi Calm Calm - N/A   Scattered Clouds
5:54 AM 57.9 °F - 55.0 °F 90% 30.07 in 10.0 mi Calm Calm - N/A   Partly Cloudy
6:54 AM 57.9 °F - 55.0 °F 90% 30.08 in 10.0 mi Calm Calm - N/A   Partly Cloudy
7:54 AM 59.0 °F - 55.0 °F 87% 30.09 in 10.0 mi Calm Calm - N/A   Partly Cloudy
8:54 AM 64.9 °F - 57.0 °F 75% 30.10 in 10.0 mi Calm Calm - N/A   Scattered Clouds
9:54 AM 71.1 °F - 55.9 °F 59% 30.11 in 10.0 mi Calm Calm - N/A   Partly Cloudy
10:54 AM 79.0 °F - 55.9 °F 45% 30.09 in 10.0 mi Variable 3.5 mph - N/A   Scattered Clouds
11:54 AM 84.9 °F - 52.0 °F 32% 30.08 in 10.0 mi Calm Calm - N/A   Scattered Clouds
12:54 PM 90.0 °F 87.5 °F 53.1 °F 28% 30.06 in 10.0 mi Variable 3.5 mph - N/A   Scattered Clouds
1:54 PM 89.1 °F 87.3 °F 55.9 °F 32% 30.04 in 10.0 mi WSW 5.8 mph - N/A   Mostly Cloudy
2:54 PM 90.0 °F 88.6 °F 57.0 °F 33% 30.01 in 10.0 mi Calm Calm - N/A   Mostly Cloudy
3:54 PM 91.0 °F 90.2 °F 59.0 °F 34% 29.99 in 10.0 mi Calm Calm - N/A   Mostly Cloudy
4:54 PM 91.9 °F 91.5 °F 60.1 °F 34% 29.97 in 10.0 mi West 10.4 mph - N/A   Scattered Clouds
5:54 PM 91.0 °F 90.9 °F 61.0 °F 36% 29.96 in 10.0 mi Variable 3.5 mph - N/A   Scattered Clouds
6:54 PM 88.0 °F 88.4 °F 62.1 °F 42% 29.97 in 10.0 mi WNW 3.5 mph - N/A   Scattered Clouds
7:54 PM 80.1 °F 81.5 °F 63.0 °F 56% 29.98 in 10.0 mi WNW 3.5 mph - N/A   Partly Cloudy
8:54 PM 80.1 °F 81.5 °F 63.0 °F 56% 29.98 in 10.0 mi Calm Calm - N/A   Partly Cloudy
9:54 PM 75.9 °F - 63.0 °F 64% 29.99 in 10.0 mi Calm Calm - N/A   Partly Cloudy
10:54 PM 73.0 °F - 64.9 °F 76% 30.00 in 10.0 mi Calm Calm - N/A   Partly Cloudy
11:54 PM 72.0 °F - 64.9 °F 78% 30.00 in 10.0 mi Calm Calm - N/A   Scattered Clouds